| time (UTC) | temp F | wind direction | speed knots | gust knots | rain 1hr in | rain 24hr in | rain mn in | humidity % | barometer mb |
| 20260510182501 | 75 | 86 | 0.0 | 173.8 | 0.00 | 0.00 | 0.00 | 63 | 457.7 |
| 20260510182000 | 75 | 78 | 0.0 | 173.8 | 0.00 | 0.00 | 0.00 | 63 | 476.9 |
| 20260510181459 | 76 | 128 | 0.0 | 173.8 | 0.00 | 0.00 | 0.00 | 61 | 498.0 |
| 20260510180958 | 77 | 63 | 0.0 | 173.8 | 0.00 | 0.00 | 0.00 | 60 | 436.8 |
| 20260510175951 | 77 | 110 | 0.0 | 173.8 | 0.00 | 0.00 | 0.00 | 63 | 529.3 |
| 20260510174418 | 77 | 121 | 0.0 | 173.8 | 0.00 | 0.00 | 0.00 | 63 | 510.4 |
| 20260510173917 | 78 | 109 | 0.0 | 173.8 | 0.00 | 0.00 | 0.00 | 60 | 552.3 |
| 20260510172910 | 79 | 164 | 0.0 | 173.8 | 0.00 | 0.00 | 0.00 | 61 | 658.9 |
| 20260510172410 | 78 | 188 | 0.0 | 173.8 | 0.00 | 0.00 | 0.00 | 61 | 647.9 |
| 20260510171909 | 78 | 190 | 0.0 | 173.8 | 0.00 | 0.00 | 0.00 | 61 | 641.3 |
| 20260510171409 | 77 | 155 | 0.0 | 173.8 | 0.00 | 0.00 | 0.00 | 61 | 570.8 |
| 20260510170909 | 76 | 154 | 0.0 | 173.8 | 0.00 | 0.00 | 0.00 | 65 | 545.6 |
| 20260510170409 | 76 | 97 | 0.0 | 173.8 | 0.00 | 0.00 | 0.00 | 67 | 546.9 |
| 20260510165909 | 75 | 101 | 0.0 | 173.8 | 0.00 | 0.00 | 0.00 | 66 | 562.6 |
| 20260510165408 | 74 | 172 | 0.0 | 173.8 | 0.00 | 0.00 | 0.00 | 69 | 580.1 |
| 20260510164908 | 72 | 109 | 0.0 | 173.8 | 0.00 | 0.00 | 0.00 | 69 | 484.4 |
| 20260510164407 | 72 | 107 | 0.0 | 173.8 | 0.00 | 0.00 | 0.00 | 67 | 508.1 |
| 20260510163907 | 73 | 94 | 0.0 | 173.8 | 0.00 | 0.00 | 0.00 | 68 | 565.9 |
| 20260510162334 | 73 | 106 | 0.0 | 173.8 | 0.00 | 0.00 | 0.00 | 67 | 619.9 |
| 20260510161834 | 72 | 218 | 0.0 | 173.8 | 0.00 | 0.00 | 0.00 | 70 | 629.1 |
| 20260510160827 | 71 | 102 | 0.0 | 173.8 | 0.00 | 0.00 | 0.00 | 70 | 508.0 |
| 20260510160326 | 72 | 158 | 0.0 | 173.8 | 0.00 | 0.00 | 0.00 | 71 | 576.3 |
| 20260510155309 | 70 | 82 | 0.0 | 173.8 | 0.00 | 0.00 | 0.00 | 72 | 384.7 |
| 20260510154808 | 70 | 81 | 0.0 | 173.8 | 0.00 | 0.00 | 0.00 | 77 | 379.1 |
| 20260510153752 | 70 | 67 | 0.0 | 173.8 | 0.00 | 0.00 | 0.00 | 76 | 379.6 |
| 20260510153251 | 69 | 84 | 0.0 | 173.8 | 0.00 | 0.00 | 0.00 | 78 | 391.3 |
| 20260510152234 | 68 | 71 | 0.0 | 173.8 | 0.00 | 0.00 | 0.00 | 77 | 357.4 |
| 20260510151733 | 68 | 65 | 0.0 | 173.8 | 0.00 | 0.00 | 0.00 | 78 | 358.4 |
| 20260510151232 | 68 | 60 | 0.0 | 173.8 | 0.00 | 0.00 | 0.00 | 80 | 371.3 |
| 20260510150731 | 68 | 76 | 0.0 | 173.8 | 0.00 | 0.00 | 0.00 | 79 | 390.4 |
| 20260510150230 | 68 | 81 | 0.0 | 173.8 | 0.00 | 0.00 | 0.00 | 81 | 386.1 |
| 20260510145729 | 67 | 77 | 0.0 | 173.8 | 0.00 | 0.00 | 0.00 | 81 | 383.8 |
| 20260510143651 | 67 | 75 | 0.0 | 173.8 | 0.00 | 0.00 | 0.00 | 80 | 393.1 |
| 20260510143149 | 66 | 76 | 0.0 | 173.8 | 0.00 | 0.00 | 0.00 | 81 | 411.2 |
| 20260510142648 | 66 | 89 | 0.0 | 173.8 | 0.00 | 0.00 | 0.00 | 82 | 433.0 |
| 20260510142147 | 66 | 89 | 0.0 | 173.8 | 0.00 | 0.00 | 0.00 | 82 | 449.4 |
| 20260510141645 | 66 | 89 | 0.0 | 173.8 | 0.00 | 0.00 | 0.00 | 83 | 476.4 |
| 20260510141143 | 65 | 102 | 0.0 | 173.8 | 0.00 | 0.00 | 0.00 | 83 | 527.6 |
| 20260510140644 | 64 | 104 | 0.0 | 173.8 | 0.00 | 0.00 | 0.00 | 83 | 587.8 |
| 20260510140141 | 64 | 126 | 0.0 | 173.8 | 0.00 | 0.00 | 0.00 | 83 | 709.4 |
| 20260510135640 | 64 | 241 | 0.0 | 173.8 | 0.00 | 0.00 | 0.00 | 84 | 708.7 |
| 20260510135139 | 63 | 241 | 0.0 | 173.8 | 0.00 | 0.00 | 0.00 | 84 | 559.3 |
| 20260510134132 | 63 | 35 | 0.0 | 173.8 | 0.00 | 0.00 | 0.00 | 83 | 305.2 |
| 20260510133631 | 63 | 38 | 0.0 | 173.8 | 0.00 | 0.00 | 0.00 | 84 | 348.9 |
| 20260510131603 | 61 | 0 | 0.0 | 173.8 | 0.00 | 0.00 | 0.00 | 87 | 1217.7 |
| 20260510131102 | 61 | 0 | 0.0 | 173.8 | 0.00 | 0.00 | 0.00 | 88 | 1209.3 |
| 20260510130602 | 60 | 0 | 0.0 | 173.8 | 0.00 | 0.00 | 0.00 | 89 | 1194.9 |
| 20260510125546 | 59 | 0 | 0.0 | 173.8 | 0.00 | 0.00 | 0.00 | 92 | 1113.3 |
| 20260510124539 | 58 | 242 | 0.0 | 173.8 | 0.00 | 0.00 | 0.00 | 94 | 874.8 |
| 20260510123006 | 57 | 242 | 0.0 | 173.8 | 0.00 | 0.00 | 0.00 | 96 | 876.0 |
| 20260510122505 | 56 | 242 | 0.0 | 173.8 | 0.00 | 0.00 | 0.00 | 96 | 876.0 |
| 20260510122005 | 56 | 242 | 0.0 | 173.8 | 0.00 | 0.00 | 0.00 | 96 | 876.4 |
| 20260510120958 | 56 | 242 | 0.0 | 173.8 | 0.00 | 0.00 | 0.00 | 96 | 876.9 |
| 20260510120458 | 55 | 242 | 0.0 | 173.8 | 0.00 | 0.00 | 0.00 | 96 | 877.3 |
| 20260510115957 | 55 | 242 | 0.0 | 173.8 | 0.00 | 0.00 | 0.00 | 97 | 879.1 |
| 20260510115456 | 55 | 242 | 0.0 | 173.8 | 0.00 | 0.00 | 0.00 | 97 | 881.6 |
| 20260510114955 | 55 | 242 | 0.0 | 173.8 | 0.00 | 0.00 | 0.00 | 97 | 886.4 |
| 20260510114454 | 55 | 242 | 0.0 | 173.8 | 0.00 | 0.00 | 0.00 | 97 | 896.8 |
| 20260510113953 | 54 | 255 | 0.0 | 173.8 | 0.00 | 0.00 | 0.00 | 97 | 898.1 |
| 20260510113453 | 54 | 264 | 0.0 | 173.8 | 0.00 | 0.00 | 0.00 | 97 | 930.2 |
| 20260510112951 | 54 | 272 | 0.0 | 173.8 | 0.00 | 0.00 | 0.00 | 97 | 913.1 |
| 20260510112450 | 54 | 273 | 0.0 | 173.8 | 0.00 | 0.00 | 0.00 | 97 | 863.7 |
| 20260510111949 | 53 | 219 | 0.0 | 173.8 | 0.00 | 0.00 | 0.00 | 97 | 806.3 |
| 20260510111448 | 53 | 219 | 0.0 | 173.8 | 0.00 | 0.00 | 0.00 | 97 | 806.0 |
| 20260510110948 | 53 | 219 | 0.0 | 173.8 | 0.00 | 0.00 | 0.00 | 97 | 804.3 |
| 20260510110446 | 53 | 219 | 0.0 | 173.8 | 0.00 | 0.00 | 0.00 | 97 | 800.3 |
| 20260510105945 | 53 | 209 | 0.0 | 173.8 | 0.00 | 0.00 | 0.00 | 97 | 792.8 |
| 20260510105445 | 53 | 209 | 0.0 | 173.8 | 0.00 | 0.00 | 0.00 | 96 | 807.5 |
| 20260510104943 | 52 | 209 | 0.0 | 173.8 | 0.00 | 0.00 | 0.00 | 96 | 835.1 |
| 20260510104443 | 52 | 209 | 0.0 | 173.8 | 0.00 | 0.00 | 0.00 | 96 | 891.1 |
| 20260510103941 | 52 | 297 | 0.0 | 173.8 | 0.00 | 0.00 | 0.00 | 96 | 1003.9 |
| 20260510103441 | 52 | 295 | 0.0 | 173.8 | 0.00 | 0.00 | 0.00 | 96 | 973.2 |
| 20260510102940 | 52 | 262 | 0.0 | 173.8 | 0.00 | 0.00 | 0.00 | 95 | 931.1 |
| 20260510102438 | 52 | 262 | 0.0 | 173.8 | 0.00 | 0.00 | 0.00 | 95 | 929.0 |
| 20260510101937 | 52 | 262 | 0.0 | 173.8 | 0.00 | 0.00 | 0.00 | 95 | 925.6 |
| 20260510100931 | 52 | 262 | 0.0 | 173.8 | 0.00 | 0.00 | 0.00 | 95 | 907.2 |
| 20260510100430 | 52 | 262 | 0.0 | 173.8 | 0.00 | 0.00 | 0.00 | 95 | 885.2 |
| 20260510095928 | 52 | 247 | 0.0 | 173.8 | 0.00 | 0.00 | 0.00 | 95 | 842.3 |
| 20260510095427 | 52 | 228 | 0.0 | 173.8 | 0.00 | 0.00 | 0.00 | 95 | 823.8 |
| 20260510094412 | 53 | 228 | 0.0 | 173.8 | 0.00 | 0.00 | 0.00 | 95 | 812.5 |
| 20260510093911 | 53 | 228 | 0.0 | 173.8 | 0.00 | 0.00 | 0.00 | 95 | 799.6 |
| 20260510093412 | 53 | 228 | 0.0 | 173.8 | 0.00 | 0.00 | 0.00 | 95 | 774.9 |
| 20260510092912 | 53 | 228 | 0.0 | 173.8 | 0.00 | 0.00 | 0.00 | 95 | 726.6 |
| 20260510092413 | 53 | 228 | 0.0 | 173.8 | 0.00 | 0.00 | 0.00 | 95 | 633.5 |
| 20260510091911 | 53 | 166 | 0.0 | 173.8 | 0.00 | 0.00 | 0.00 | 95 | 450.4 |
| 20260510091412 | 53 | 55 | 0.0 | 173.8 | 0.00 | 0.00 | 0.00 | 95 | 353.7 |
| 20260510090912 | 53 | 55 | 0.0 | 173.8 | 0.00 | 0.00 | 0.00 | 95 | 389.9 |
| 20260510085906 | 53 | 55 | 0.0 | 173.8 | 0.00 | 0.00 | 0.00 | 95 | 595.7 |
| 20260510084859 | 54 | 87 | 0.0 | 173.8 | 0.00 | 0.00 | 0.00 | 96 | 647.4 |
| 20260510084358 | 54 | 221 | 0.0 | 173.8 | 0.00 | 0.00 | 0.00 | 95 | 776.3 |
| 20260510083857 | 54 | 131 | 0.0 | 173.8 | 0.00 | 0.00 | 0.00 | 95 | 710.3 |
| 20260510083356 | 53 | 168 | 0.0 | 173.8 | 0.00 | 0.00 | 0.00 | 95 | 739.0 |
| 20260510082855 | 53 | 300 | 0.0 | 173.8 | 0.00 | 0.00 | 0.00 | 94 | 833.4 |
| 20260510082354 | 53 | 254 | 0.0 | 173.8 | 0.00 | 0.00 | 0.00 | 94 | 690.4 |
| 20260510081853 | 53 | 212 | 0.0 | 173.8 | 0.00 | 0.00 | 0.00 | 94 | 501.6 |
| 20260510081351 | 53 | 92 | 0.0 | 173.8 | 0.00 | 0.00 | 0.00 | 93 | 421.4 |
| 20260510080851 | 53 | 92 | 0.0 | 173.8 | 0.00 | 0.00 | 0.00 | 93 | 421.3 |
| 20260510080350 | 53 | 92 | 0.0 | 173.8 | 0.00 | 0.00 | 0.00 | 93 | 421.3 |
| 20260510075848 | 53 | 92 | 0.0 | 173.8 | 0.00 | 0.00 | 0.00 | 93 | 421.4 |
| 20260510075348 | 53 | 92 | 0.0 | 173.8 | 0.00 | 0.00 | 0.00 | 93 | 421.2 |
| 20260510074847 | 54 | 92 | 0.0 | 173.8 | 0.00 | 0.00 | 0.00 | 93 | 421.2 |
| 20260510074346 | 54 | 92 | 0.0 | 173.8 | 0.00 | 0.00 | 0.00 | 93 | 421.4 |
| 20260510073845 | 54 | 92 | 0.0 | 173.8 | 0.00 | 0.00 | 0.00 | 93 | 421.6 |
| 20260510073344 | 54 | 92 | 0.0 | 173.8 | 0.00 | 0.00 | 0.00 | 93 | 421.3 |
| 20260510072337 | 54 | 92 | 0.0 | 173.8 | 0.00 | 0.00 | 0.00 | 93 | 421.2 |
| 20260510071320 | 54 | 92 | 0.0 | 173.8 | 0.00 | 0.00 | 0.00 | 92 | 420.9 |
| 20260510070819 | 54 | 92 | 0.0 | 173.8 | 0.00 | 0.00 | 0.00 | 92 | 420.7 |
| 20260510070318 | 54 | 92 | 0.0 | 173.8 | 0.00 | 0.00 | 0.00 | 92 | 420.4 |
| 20260510065305 | 55 | 92 | 0.0 | 173.8 | 0.00 | 0.00 | 0.00 | 92 | 420.0 |
| 20260510064801 | 55 | 92 | 0.0 | 173.8 | 0.00 | 0.00 | 0.00 | 92 | 420.1 |
| 20260510064259 | 55 | 92 | 0.0 | 173.8 | 0.00 | 0.00 | 0.00 | 92 | 419.9 |
| 20260510063758 | 55 | 92 | 0.0 | 173.8 | 0.00 | 0.00 | 0.00 | 92 | 419.1 |
| 20260510063257 | 55 | 92 | 0.0 | 173.8 | 0.00 | 0.00 | 0.00 | 91 | 418.5 |
| 20260510062250 | 55 | 92 | 0.0 | 173.8 | 0.00 | 0.00 | 0.00 | 91 | 416.3 |
| 20260510061749 | 55 | 92 | 0.0 | 173.8 | 0.00 | 0.00 | 0.00 | 91 | 412.8 |
| 20260510061248 | 56 | 92 | 0.0 | 173.8 | 0.00 | 0.00 | 0.00 | 91 | 406.7 |
| 20260510060747 | 56 | 92 | 0.0 | 173.8 | 0.00 | 0.00 | 0.00 | 91 | 395.6 |
| 20260510060247 | 56 | 92 | 0.0 | 173.8 | 0.00 | 0.00 | 0.00 | 91 | 373.0 |
| 20260510055746 | 56 | 63 | 0.0 | 173.8 | 0.00 | 0.00 | 0.00 | 91 | 333.1 |
| 20260510054739 | 56 | 63 | 0.0 | 173.8 | 0.00 | 0.00 | 0.00 | 90 | 333.1 |
| 20260510053722 | 56 | 63 | 0.0 | 173.8 | 0.00 | 0.00 | 0.00 | 90 | 333.1 |
| 20260510053221 | 57 | 63 | 0.0 | 173.8 | 0.00 | 0.00 | 0.00 | 90 | 333.3 |
| 20260510052720 | 57 | 63 | 0.0 | 173.8 | 0.00 | 0.00 | 0.00 | 90 | 333.0 |
| 20260510052219 | 57 | 63 | 0.0 | 173.8 | 0.00 | 0.00 | 0.00 | 90 | 332.8 |
| 20260510051717 | 57 | 63 | 0.0 | 173.8 | 0.00 | 0.00 | 0.00 | 90 | 332.9 |
| 20260510050701 | 57 | 63 | 0.0 | 173.8 | 0.00 | 0.00 | 0.00 | 89 | 333.2 |
| 20260510045138 | 57 | 63 | 0.0 | 173.8 | 0.00 | 0.00 | 0.00 | 89 | 333.4 |
| 20260510044131 | 57 | 63 | 0.0 | 173.8 | 0.00 | 0.00 | 0.00 | 89 | 333.6 |
| 20260510043630 | 57 | 63 | 0.0 | 173.8 | 0.00 | 0.00 | 0.00 | 89 | 333.6 |
| 20260510043129 | 57 | 63 | 0.0 | 173.8 | 0.00 | 0.00 | 0.00 | 89 | 333.6 |
| 20260510042629 | 58 | 63 | 0.0 | 173.8 | 0.00 | 0.00 | 0.00 | 89 | 333.3 |
| 20260510042128 | 58 | 63 | 0.0 | 173.8 | 0.00 | 0.00 | 0.00 | 88 | 333.5 |
| 20260510041627 | 58 | 63 | 0.0 | 173.8 | 0.00 | 0.00 | 0.00 | 88 | 333.2 |
| 20260510041126 | 58 | 63 | 0.0 | 173.8 | 0.00 | 0.00 | 0.00 | 88 | 333.1 |
| 20260510040625 | 58 | 63 | 0.0 | 173.8 | 0.00 | 0.00 | 0.00 | 88 | 333.4 |
| 20260510040124 | 58 | 63 | 0.0 | 173.8 | 0.00 | 0.00 | 0.00 | 88 | 333.6 |
| 20260510034602 | 58 | 63 | 0.0 | 173.8 | 0.00 | 0.00 | 0.00 | 87 | 333.2 |
| 20260510034101 | 58 | 63 | 0.0 | 173.8 | 0.00 | 0.00 | 0.00 | 87 | 332.9 |
| 20260510033559 | 58 | 63 | 0.0 | 173.8 | 0.00 | 0.00 | 0.00 | 86 | 332.6 |
| 20260510033058 | 58 | 63 | 0.0 | 173.8 | 0.00 | 0.00 | 0.00 | 85 | 332.7 |
| 20260510032557 | 59 | 63 | 0.0 | 173.8 | 0.00 | 0.00 | 0.00 | 85 | 333.0 |
| 20260510032056 | 59 | 63 | 0.0 | 173.8 | 0.00 | 0.00 | 0.00 | 84 | 332.9 |
| 20260510031555 | 59 | 63 | 0.0 | 173.8 | 0.00 | 0.00 | 0.00 | 84 | 332.9 |
| 20260510031054 | 59 | 63 | 0.0 | 173.8 | 0.00 | 0.00 | 0.00 | 84 | 332.8 |
| 20260510030553 | 60 | 63 | 0.0 | 173.8 | 0.00 | 0.00 | 0.00 | 83 | 332.5 |
| 20260510030052 | 60 | 63 | 0.0 | 173.8 | 0.00 | 0.00 | 0.00 | 83 | 332.5 |
| 20260510024540 | 60 | 63 | 0.0 | 173.8 | 0.00 | 0.00 | 0.00 | 84 | 333.2 |
| 20260510023019 | 61 | 63 | 0.0 | 173.8 | 0.00 | 0.00 | 0.00 | 83 | 333.5 |
| 20260510022003 | 61 | 63 | 0.0 | 173.8 | 0.00 | 0.00 | 0.00 | 83 | 332.8 |
| 20260510021503 | 61 | 63 | 0.0 | 173.8 | 0.00 | 0.00 | 0.00 | 83 | 332.8 |
| 20260510021002 | 61 | 63 | 0.0 | 173.8 | 0.00 | 0.00 | 0.00 | 83 | 333.1 |
| 20260510015955 | 61 | 63 | 0.0 | 173.8 | 0.00 | 0.00 | 0.00 | 83 | 333.1 |
| 20260510015454 | 62 | 63 | 0.0 | 173.8 | 0.00 | 0.00 | 0.00 | 84 | 333.1 |
| 20260510014447 | 62 | 63 | 0.0 | 173.8 | 0.00 | 0.00 | 0.00 | 82 | 332.5 |
| 20260510013946 | 62 | 63 | 0.0 | 173.8 | 0.00 | 0.00 | 0.00 | 83 | 331.4 |
| 20260510013445 | 62 | 63 | 0.0 | 173.8 | 0.00 | 0.00 | 0.00 | 83 | 329.3 |
| 20260510012944 | 62 | 63 | 0.0 | 173.8 | 0.00 | 0.00 | 0.00 | 82 | 325.7 |
| 20260510012443 | 62 | 63 | 0.0 | 173.8 | 0.00 | 0.00 | 0.00 | 82 | 319.1 |
| 20260510011942 | 63 | 62 | 0.0 | 173.8 | 0.00 | 0.00 | 0.00 | 82 | 303.5 |
| 20260510011441 | 63 | 49 | 0.0 | 173.8 | 0.00 | 0.00 | 0.00 | 82 | 290.0 |
| 20260510010939 | 63 | 49 | 0.0 | 173.8 | 0.00 | 0.00 | 0.00 | 83 | 288.4 |
| 20260510010438 | 63 | 53 | 0.0 | 173.8 | 0.00 | 0.00 | 0.00 | 81 | 285.5 |
| 20260510005937 | 63 | 46 | 0.0 | 173.8 | 0.00 | 0.00 | 0.00 | 81 | 274.6 |
| 20260510003332 | 63 | 42 | 0.0 | 173.8 | 0.00 | 0.00 | 0.00 | 78 | 267.1 |
| 20260510002314 | 64 | 43 | 0.0 | 173.8 | 0.00 | 0.00 | 0.00 | 77 | 259.2 |
| 20260510001258 | 65 | 38 | 0.0 | 173.8 | 0.00 | 0.00 | 0.00 | 77 | 257.6 |
| 20260510000758 | 65 | 38 | 0.0 | 173.8 | 0.00 | 0.00 | 0.00 | 77 | 258.0 |
| 20260510000257 | 65 | 38 | 0.0 | 173.8 | 0.00 | 0.00 | 0.00 | 76 | 258.1 |
| 20260509235756 | 65 | 38 | 0.0 | 173.8 | 0.00 | 0.00 | 0.00 | 76 | 258.1 |
| 20260509235255 | 65 | 38 | 0.0 | 173.8 | 0.00 | 0.00 | 0.00 | 76 | 258.2 |
| 20260509234754 | 66 | 38 | 0.0 | 173.8 | 0.00 | 0.00 | 0.00 | 75 | 258.1 |
| 20260509234254 | 66 | 38 | 0.0 | 173.8 | 0.00 | 0.00 | 0.00 | 75 | 258.2 |
| 20260509233754 | 66 | 38 | 0.0 | 173.8 | 0.00 | 0.00 | 0.00 | 75 | 258.3 |
| 20260509233254 | 66 | 38 | 0.0 | 173.8 | 0.00 | 0.00 | 0.00 | 75 | 258.8 |
| 20260509232754 | 66 | 38 | 0.0 | 173.8 | 0.00 | 0.00 | 0.00 | 74 | 259.1 |
| 20260509231738 | 66 | 38 | 0.0 | 173.8 | 0.00 | 0.00 | 0.00 | 75 | 260.0 |
| 20260509231237 | 67 | 38 | 0.0 | 173.8 | 0.00 | 0.00 | 0.00 | 74 | 261.1 |
| 20260509230736 | 67 | 38 | 0.0 | 173.8 | 0.00 | 0.00 | 0.00 | 73 | 263.8 |
| 20260509230235 | 67 | 38 | 0.0 | 173.8 | 0.00 | 0.00 | 0.00 | 73 | 269.1 |
| 20260509225734 | 67 | 42 | 0.0 | 173.8 | 0.00 | 0.00 | 0.00 | 72 | 279.8 |
| 20260509225233 | 67 | 44 | 0.0 | 173.8 | 0.00 | 0.00 | 0.00 | 72 | 285.6 |
| 20260509224732 | 67 | 44 | 0.0 | 173.8 | 0.00 | 0.00 | 0.00 | 72 | 292.5 |
| 20260509224230 | 68 | 45 | 0.0 | 173.8 | 0.00 | 0.00 | 0.00 | 72 | 306.6 |
| 20260509223729 | 68 | 55 | 0.0 | 173.8 | 0.00 | 0.00 | 0.00 | 72 | 331.7 |
| 20260509223228 | 68 | 64 | 0.0 | 173.8 | 0.00 | 0.00 | 0.00 | 69 | 342.2 |
| 20260509222727 | 68 | 65 | 0.0 | 173.8 | 0.00 | 0.00 | 0.00 | 70 | 348.5 |
| 20260509222226 | 68 | 69 | 0.0 | 173.8 | 0.00 | 0.00 | 0.00 | 71 | 353.8 |
| 20260509221219 | 68 | 69 | 0.0 | 173.8 | 0.00 | 0.00 | 0.00 | 71 | 360.1 |
| 20260509220718 | 68 | 73 | 0.0 | 173.8 | 0.00 | 0.00 | 0.00 | 71 | 363.1 |
| 20260509215711 | 68 | 73 | 0.0 | 173.8 | 0.00 | 0.00 | 0.00 | 72 | 363.8 |
| 20260509215210 | 68 | 73 | 0.0 | 173.8 | 0.00 | 0.00 | 0.00 | 71 | 364.3 |
| 20260509214709 | 68 | 73 | 0.0 | 173.8 | 0.00 | 0.00 | 0.00 | 71 | 364.2 |
| 20260509214209 | 68 | 73 | 0.0 | 173.8 | 0.00 | 0.00 | 0.00 | 72 | 364.4 |
| 20260509213709 | 68 | 73 | 0.0 | 173.8 | 0.00 | 0.00 | 0.00 | 71 | 364.6 |
| 20260509212702 | 68 | 73 | 0.0 | 173.8 | 0.00 | 0.00 | 0.00 | 70 | 364.8 |
| 20260509212202 | 68 | 73 | 0.0 | 173.8 | 0.00 | 0.00 | 0.00 | 70 | 363.9 |
| 20260509211701 | 67 | 73 | 0.0 | 173.8 | 0.00 | 0.00 | 0.00 | 71 | 362.4 |
| 20260509211200 | 68 | 73 | 0.0 | 173.8 | 0.00 | 0.00 | 0.00 | 70 | 361.5 |
| 20260509210659 | 68 | 73 | 0.0 | 173.8 | 0.00 | 0.00 | 0.00 | 70 | 360.7 |
| 20260509205652 | 68 | 73 | 0.0 | 173.8 | 0.00 | 0.00 | 0.00 | 68 | 360.3 |
| 20260509205151 | 68 | 67 | 0.0 | 173.8 | 0.00 | 0.00 | 0.00 | 71 | 363.0 |
| 20260509204651 | 68 | 75 | 0.0 | 173.8 | 0.00 | 0.00 | 0.00 | 70 | 367.5 |
| 20260509204151 | 68 | 76 | 0.0 | 173.8 | 0.00 | 0.00 | 0.00 | 70 | 366.0 |
| 20260509203650 | 68 | 73 | 0.0 | 173.8 | 0.00 | 0.00 | 0.00 | 70 | 359.1 |
| 20260509202643 | 69 | 77 | 0.0 | 173.8 | 0.00 | 0.00 | 0.00 | 68 | 361.8 |
| 20260509202142 | 69 | 73 | 0.0 | 173.8 | 0.00 | 0.00 | 0.00 | 68 | 349.6 |
| 20260509201641 | 68 | 58 | 0.0 | 173.8 | 0.00 | 0.00 | 0.00 | 67 | 348.0 |
| 20260509200634 | 68 | 45 | 0.0 | 173.8 | 0.00 | 0.00 | 0.00 | 68 | 435.2 |
| 20260509200134 | 68 | 150 | 0.0 | 173.8 | 0.00 | 0.00 | 0.00 | 68 | 436.0 |
| 20260509195632 | 68 | 78 | 0.0 | 173.8 | 0.00 | 0.00 | 0.00 | 69 | 373.4 |
| 20260509195133 | 68 | 72 | 0.0 | 173.8 | 0.00 | 0.00 | 0.00 | 69 | 364.7 |
| 20260509194631 | 68 | 71 | 0.0 | 173.8 | 0.00 | 0.00 | 0.00 | 67 | 369.4 |
| 20260509193615 | 69 | 84 | 0.0 | 173.8 | 0.00 | 0.00 | 0.00 | 66 | 392.5 |
| 20260509193114 | 69 | 84 | 0.0 | 173.8 | 0.00 | 0.00 | 0.00 | 67 | 388.8 |
| 20260509192057 | 68 | 70 | 0.0 | 173.8 | 0.00 | 0.00 | 0.00 | 67 | 362.7 |
| 20260509191556 | 68 | 63 | 0.0 | 173.8 | 0.00 | 0.00 | 0.00 | 66 | 322.9 |
| 20260509191056 | 67 | 41 | 0.0 | 173.8 | 0.00 | 0.00 | 0.00 | 67 | 334.3 |
| 20260509190555 | 68 | 41 | 0.0 | 173.8 | 0.00 | 0.00 | 0.00 | 67 | 395.8 |
| 20260509190053 | 68 | 40 | 0.0 | 173.8 | 0.00 | 0.00 | 0.00 | 66 | 520.3 |
| 20260509185552 | 68 | 352 | 0.0 | 173.8 | 0.00 | 0.00 | 0.00 | 68 | 527.5 |
| 20260509184029 | 66 | 54 | 0.0 | 173.8 | 0.00 | 0.00 | 0.00 | 71 | 338.1 |
| 20260509183528 | 66 | 53 | 0.0 | 173.8 | 0.00 | 0.00 | 0.00 | 70 | 361.8 |